{"data":{"norad_id":63988,"epoch":"2026-09-21T23:17:26.143872Z","epoch_age_seconds":72184,"freshness":"FRESH","line1":"1 63988U 25100G   26264.97044148  .00002915  00000+0  11113-3 0  9995","line2":"2 63988  97.3626 338.7301 0011466 329.2428  30.8139 15.27441117 75539","mean_motion":15.27441117,"eccentricity":0.0011466,"inclination_deg":97.3626,"raan_deg":338.7301,"arg_perigee_deg":329.2428,"mean_anomaly_deg":30.8139,"bstar":0.00011113,"rev_number":7553,"period_min":94.275319943479,"perigee_km":475.5974803694,"apogee_km":491.33250606023,"semimajor_km":6861.6019932148,"source":"CELESTRAK","updated_at":"2026-09-22T09:00:29.479021Z"}}